Weather in Ljungskile

Sweden     58°13′30″N   11°55′11″E
temp.,
°C
wind,
m/s
gust,
m/s
humid.,
%
clouds,
%
prec.,
mm/h
press.,
hPa
HPBL,
m
16 june, wed
wed1623:00+9sw288912 0.0 1017262
02:00+10sw398615 0.0 1017389
05:00+10sw39825 0.0 1016499
08:00+14sw596495 0.0 1017769
11:00+16wsw57535 0.0 1018998
14:00+18sw564317 0.0 10171034
17:00+18sw463697 0.0 1017879
20:00+16ssw365510 0.0 1017596
17 june, thu
thu1723:00+10s228785 0.0 101738
02:00+9sse22955 0.0 101721
05:00+10sse2293100 0.0 101750
08:00+16sse35560 0.0 1017316
11:00+21sse3645100 0.0 1016790
14:00+26s3739100 0.0 10151607
17:00+25ssw3853100 0.0 1014886
20:00+23s4126427 0.0 1013788
18 june, fri
fri1823:00+21s4147852 0.1 1013671
02:00+20s41377100 0.2 1012589
05:00+18ssw399199 0.1 1012394
08:00+18ssw499094 0.1 1013454
11:00+21sw47635 0.0 1014530
14:00+24wsw45474 0.0 1014806
17:00+21w455551 0.0 1014563
20:00+20wsw126216 0.1 1014307
19 june, sat
sat1923:00+15nw1191100 0.3 101411
02:00+15e1297100 1.8 101352
05:00+16e3799100 3.1 1011185
08:00+20se2593100 4.3 1010287
11:00+23s4870100 0.1 1010555
14:00+21ssw4118228 0.3 1010697
17:00+19wsw598399 0.1 1010646
20:00+15sw478784 0.1 1011527
20 june, sun
sun2023:00+14wsw369473 0.0 1013364
02:00+10wsw119821 0.0 101412
05:00+10nw119820 0.0 101516
08:00+15nne116881 0.0 1015465
11:00+20e21485 0.0 10141111
14:00+24w124057 0.0 10131477
17:00+22nnw124999 0.0 1013773
20:00+19nne126166 0.0 1013163